CAL5836 VHHH-RCTP

Flight info

Callsign CAL5836
Flight time 1h 12m
Altitude 35000
Route DALOL V631 ENVAR M750 EXTRA/N0509F290 M750 TONGA TONGA1A
Aircraft B77L/H-SDE1E2E3FGHIJ2J3J4J5M1RWXY/LB1D1

Departure

Time 2026-05-05 22:43
Airport Hong Kong International Airport (VHHH)

Arrival

Time 2026-05-05 23:55
Airport Taiwan Taoyuan International Airport (RCTP)
Time Latitude Longitude Altitude Speed Heading
2026-05-05 21:45 22.29823 113.91986 42 ft 0 kts 162°
2026-05-05 22:21 22.29835 113.91981 42 ft 2 kts 161°
2026-05-05 22:21 22.29850 113.91976 42 ft 2 kts 162°
2026-05-05 22:22 22.29864 113.91972 42 ft 2 kts 162°
2026-05-05 22:22 22.29879 113.91967 42 ft 2 kts 174°
2026-05-05 22:22 22.29894 113.91968 42 ft 2 kts 194°
2026-05-05 22:22 22.29908 113.91973 42 ft 2 kts 211°
2026-05-05 22:23 22.29919 113.91983 42 ft 2 kts 229°
2026-05-05 22:23 22.29928 113.91996 42 ft 2 kts 246°
2026-05-05 22:23 22.29933 113.92011 42 ft 2 kts 254°
2026-05-05 22:23 22.29935 113.92021 42 ft 0 kts 252°
2026-05-05 22:24 22.29936 113.92021 42 ft 0 kts 252°
2026-05-05 22:24 22.29935 113.92021 42 ft 0 kts 252°
2026-05-05 22:27 22.29932 113.92009 42 ft 2 kts 252°
2026-05-05 22:27 22.29922 113.91979 42 ft 5 kts 251°
2026-05-05 22:27 22.29907 113.91930 42 ft 8 kts 250°
2026-05-05 22:27 22.29886 113.91866 42 ft 10 kts 251°
2026-05-05 22:28 22.29867 113.91805 42 ft 4 kts 251°
2026-05-05 22:28 22.29869 113.91766 42 ft 5 kts 303°
2026-05-05 22:28 22.29913 113.91743 42 ft 8 kts 342°
2026-05-05 22:28 22.29972 113.91722 42 ft 9 kts 341°
2026-05-05 22:29 22.30021 113.91699 42 ft 5 kts 321°
2026-05-05 22:29 22.30035 113.91659 42 ft 6 kts 266°
2026-05-05 22:29 22.30031 113.91609 42 ft 5 kts 287°
2026-05-05 22:29 22.30068 113.91579 42 ft 8 kts 344°
2026-05-05 22:30 22.30128 113.91559 42 ft 9 kts 340°
2026-05-05 22:30 22.30197 113.91533 42 ft 11 kts 341°
2026-05-05 22:30 22.30255 113.91511 42 ft 8 kts 341°
2026-05-05 22:30 22.30298 113.91495 42 ft 5 kts 341°
2026-05-05 22:31 22.30315 113.91489 42 ft 1 kts 341°
2026-05-05 22:31 22.30317 113.91488 42 ft 0 kts 341°
2026-05-05 22:31 22.30319 113.91487 42 ft 0 kts 341°
2026-05-05 22:31 22.30327 113.91484 42 ft 1 kts 341°
2026-05-05 22:32 22.30345 113.91477 42 ft 3 kts 341°
2026-05-05 22:32 22.30375 113.91466 42 ft 5 kts 341°
2026-05-05 22:32 22.30412 113.91444 42 ft 6 kts 308°
2026-05-05 22:32 22.30418 113.91407 42 ft 5 kts 261°
2026-05-05 22:33 22.30405 113.91361 42 ft 7 kts 252°
2026-05-05 22:33 22.30385 113.91300 42 ft 9 kts 250°
2026-05-05 22:33 22.30360 113.91223 42 ft 11 kts 250°
2026-05-05 22:33 22.30330 113.91132 42 ft 13 kts 251°
2026-05-05 22:34 22.30297 113.91031 42 ft 15 kts 250°
2026-05-05 22:34 22.30261 113.90919 42 ft 16 kts 251°
2026-05-05 22:34 22.30226 113.90810 42 ft 11 kts 251°
2026-05-05 22:34 22.30207 113.90740 42 ft 8 kts 269°
2026-05-05 22:35 22.30239 113.90694 42 ft 8 kts 334°
2026-05-05 22:35 22.30294 113.90674 42 ft 8 kts 340°
2026-05-05 22:35 22.30351 113.90652 42 ft 9 kts 341°
2026-05-05 22:35 22.30417 113.90628 42 ft 10 kts 341°
2026-05-05 22:36 22.30490 113.90601 42 ft 11 kts 341°
2026-05-05 22:36 22.30568 113.90572 42 ft 12 kts 340°
2026-05-05 22:36 22.30653 113.90540 42 ft 13 kts 341°
2026-05-05 22:36 22.30743 113.90507 42 ft 14 kts 341°
2026-05-05 22:37 22.30838 113.90472 42 ft 14 kts 341°
2026-05-05 22:37 22.30925 113.90440 42 ft 11 kts 341°
2026-05-05 22:37 22.30977 113.90418 42 ft 6 kts 330°
2026-05-05 22:37 22.30995 113.90388 42 ft 5 kts 275°
2026-05-05 22:38 22.30989 113.90339 42 ft 7 kts 256°
2026-05-05 22:38 22.30971 113.90279 42 ft 9 kts 250°
2026-05-05 22:38 22.30946 113.90205 42 ft 11 kts 250°
2026-05-05 22:38 22.30918 113.90118 42 ft 13 kts 251°
2026-05-05 22:39 22.30891 113.90034 42 ft 11 kts 251°
2026-05-05 22:39 22.30873 113.89979 42 ft 7 kts 251°
2026-05-05 22:39 22.30857 113.89927 42 ft 7 kts 251°
2026-05-05 22:39 22.30841 113.89869 42 ft 5 kts 266°
2026-05-05 22:40 22.30860 113.89832 42 ft 6 kts 322°
2026-05-05 22:40 22.30895 113.89816 42 ft 3 kts 346°
2026-05-05 22:40 22.30924 113.89807 42 ft 4 kts 343°
2026-05-05 22:40 22.30961 113.89795 42 ft 6 kts 342°
2026-05-05 22:41 22.31006 113.89779 42 ft 7 kts 342°
2026-05-05 22:41 22.31052 113.89763 42 ft 4 kts 343°
2026-05-05 22:41 22.31074 113.89765 42 ft 2 kts 30°
2026-05-05 22:41 22.31086 113.89781 42 ft 3 kts 62°
2026-05-05 22:42 22.31096 113.89808 42 ft 4 kts 69°
2026-05-05 22:42 22.31118 113.89874 42 ft 19 kts 70°
2026-05-05 22:42 22.31245 113.90267 42 ft 90 kts 71°
2026-05-05 22:42 22.31520 113.91125 42 ft 152 kts 71°
2026-05-05 22:43 22.31927 113.92387 183 ft 193 kts 72°
2026-05-05 22:43 22.32358 113.93747 939 ft 196 kts 71°
2026-05-05 22:43 22.32788 113.95043 1952 ft 182 kts 72°
2026-05-05 22:43 22.33211 113.96368 2337 ft 197 kts 73°
2026-05-05 22:44 22.33529 113.97865 2744 ft 210 kts 81°
2026-05-05 22:44 22.33782 113.99438 3265 ft 218 kts 82°
2026-05-05 22:44 22.34046 114.01065 3871 ft 221 kts 82°
2026-05-05 22:44 22.34310 114.02692 4437 ft 226 kts 83°
2026-05-05 22:45 22.34364 114.04397 5001 ft 228 kts 100°
2026-05-05 22:45 22.33863 114.06007 5534 ft 230 kts 121°
2026-05-05 22:45 22.32845 114.07333 6064 ft 231 kts 140°
2026-05-05 22:45 22.31475 114.08245 6481 ft 239 kts 159°
2026-05-05 22:46 22.29824 114.08738 6800 ft 252 kts 174°
2026-05-05 22:46 22.28069 114.08789 7331 ft 258 kts 183°
2026-05-05 22:46 22.26192 114.08725 7664 ft 274 kts 183°
2026-05-05 22:46 22.24253 114.08686 8162 ft 283 kts 182°
2026-05-05 22:47 22.22269 114.08664 8784 ft 287 kts 182°
2026-05-05 22:47 22.20250 114.08645 9378 ft 292 kts 183°
2026-05-05 22:47 22.18224 114.08779 9941 ft 300 kts 168°
2026-05-05 22:47 22.16260 114.09579 10559 ft 306 kts 156°
2026-05-05 22:48 22.14384 114.10812 10918 ft 323 kts 145°
2026-05-05 22:48 22.12684 114.12489 11225 ft 342 kts 133°
2026-05-05 22:48 22.11262 114.14619 11551 ft 361 kts 120°
2026-05-05 22:48 22.10301 114.17181 11901 ft 378 kts 106°
2026-05-05 22:49 22.09551 114.19965 12283 ft 393 kts 110°
2026-05-05 22:49 22.08591 114.22752 12655 ft 407 kts 114°
2026-05-05 22:49 22.07260 114.25472 13101 ft 417 kts 125°
2026-05-05 22:49 22.05448 114.27915 13750 ft 420 kts 136°
2026-05-05 22:50 22.03232 114.29986 14516 ft 421 kts 145°
2026-05-05 22:50 22.00839 114.31827 15284 ft 425 kts 146°
2026-05-05 22:50 21.98422 114.33675 16014 ft 430 kts 146°
2026-05-05 22:50 21.95973 114.35564 16736 ft 435 kts 145°
2026-05-05 22:51 21.93536 114.37454 17408 ft 440 kts 144°
2026-05-05 22:51 21.91047 114.39394 18099 ft 445 kts 144°
2026-05-05 22:51 21.88574 114.41446 18752 ft 450 kts 139°
2026-05-05 22:51 21.86383 114.43922 19393 ft 457 kts 129°
2026-05-05 22:52 21.84606 114.46745 19985 ft 463 kts 119°
2026-05-05 22:52 21.83252 114.49920 20601 ft 468 kts 109°
2026-05-05 22:52 21.82329 114.53248 21188 ft 473 kts 104°
2026-05-05 22:52 21.81481 114.56674 21802 ft 478 kts 104°
2026-05-05 22:53 21.80621 114.60126 22408 ft 482 kts 104°
2026-05-05 22:53 21.79740 114.63621 22981 ft 487 kts 104°
2026-05-05 22:53 21.78844 114.67149 23543 ft 492 kts 105°
2026-05-05 22:53 21.77935 114.70702 24114 ft 496 kts 105°
2026-05-05 22:54 21.77016 114.74278 24670 ft 500 kts 105°
2026-05-05 22:54 21.76085 114.77885 25236 ft 505 kts 105°
2026-05-05 22:54 21.75151 114.81519 25784 ft 509 kts 103°
2026-05-05 22:54 21.74506 114.85274 26306 ft 513 kts 95°
2026-05-05 22:55 21.74344 114.89089 26838 ft 517 kts 89°
2026-05-05 22:55 21.74338 114.92982 27425 ft 521 kts 88°
2026-05-05 22:55 21.74344 114.96887 28034 ft 524 kts 88°
2026-05-05 22:55 21.74348 115.00777 28584 ft 528 kts 88°
2026-05-05 22:56 21.74350 115.04752 29117 ft 533 kts 88°
2026-05-05 22:56 21.74350 115.08696 29751 ft 536 kts 88°
2026-05-05 22:56 21.74348 115.12705 30542 ft 534 kts 88°
2026-05-05 22:56 21.74344 115.16652 31339 ft 533 kts 88°
2026-05-05 22:57 21.74340 115.20661 32010 ft 533 kts 88°
2026-05-05 22:57 21.74334 115.24630 32614 ft 534 kts 88°
2026-05-05 22:57 21.74328 115.28582 33216 ft 535 kts 88°
2026-05-05 22:57 21.74319 115.32610 33942 ft 534 kts 88°
2026-05-05 22:58 21.74310 115.36576 34715 ft 532 kts 88°
2026-05-05 22:58 21.74300 115.40567 34956 ft 534 kts 88°
2026-05-05 22:58 21.74289 115.44519 34970 ft 532 kts 88°
2026-05-05 22:59 21.74263 115.52457 34964 ft 528 kts 88°
2026-05-05 22:59 21.74235 115.60353 34966 ft 530 kts 88°
2026-05-05 23:00 21.74190 115.72201 34960 ft 530 kts 89°
2026-05-05 23:00 21.74154 115.80115 34963 ft 530 kts 89°
2026-05-05 23:01 21.74116 115.88019 34963 ft 530 kts 88°
2026-05-05 23:01 21.74073 115.95898 34965 ft 530 kts 89°
2026-05-05 23:02 21.74027 116.03851 34964 ft 531 kts 89°
2026-05-05 23:02 21.73976 116.11804 34968 ft 531 kts 89°
2026-05-05 23:03 21.73922 116.19723 34969 ft 532 kts 89°
2026-05-05 23:03 21.73864 116.27676 34969 ft 532 kts 89°
2026-05-05 23:04 21.73802 116.35581 34969 ft 531 kts 88°
2026-05-05 23:04 21.73737 116.43526 34968 ft 531 kts 89°
2026-05-05 23:05 21.73667 116.51472 34970 ft 532 kts 88°
2026-05-05 23:05 21.73594 116.59420 34972 ft 533 kts 89°
2026-05-05 23:06 21.73517 116.67329 34954 ft 532 kts 89°
2026-05-05 23:06 21.73536 116.75320 34943 ft 531 kts 83°
2026-05-05 23:07 21.75041 116.82996 34949 ft 526 kts 67°
2026-05-05 23:07 21.77662 116.90320 34949 ft 523 kts 65°
2026-05-05 23:08 21.80300 116.97574 34950 ft 524 kts 65°
2026-05-05 23:08 21.82954 117.04900 34950 ft 523 kts 65°
2026-05-05 23:09 21.85599 117.12220 34951 ft 526 kts 65°
2026-05-05 23:09 21.88241 117.19549 34952 ft 526 kts 65°
2026-05-05 23:10 21.90881 117.26885 34955 ft 526 kts 65°
2026-05-05 23:10 21.93507 117.34199 34954 ft 525 kts 65°
2026-05-05 23:11 21.96127 117.41507 34955 ft 526 kts 65°
2026-05-05 23:11 21.98776 117.48811 34950 ft 524 kts 62°
2026-05-05 23:12 22.02339 117.55621 34960 ft 520 kts 54°
2026-05-05 23:12 22.06112 117.62247 34960 ft 520 kts 53°
2026-05-05 23:13 22.09894 117.68902 34945 ft 519 kts 54°
2026-05-05 23:13 22.13658 117.75538 34957 ft 521 kts 54°
2026-05-05 23:14 22.17442 117.82221 34956 ft 520 kts 54°
2026-05-05 23:14 22.21201 117.88870 34960 ft 522 kts 54°
2026-05-05 23:15 22.24964 117.95535 34970 ft 520 kts 54°
2026-05-05 23:15 22.28714 118.02163 34977 ft 519 kts 53°
2026-05-05 23:16 22.32561 118.08745 34979 ft 519 kts 53°
2026-05-05 23:16 22.36433 118.15372 34975 ft 518 kts 53°
2026-05-05 23:17 22.40271 118.21955 34980 ft 519 kts 53°
2026-05-05 23:17 22.44036 118.28572 34982 ft 520 kts 53°
2026-05-05 23:18 22.47811 118.35247 34984 ft 520 kts 53°
2026-05-05 23:18 22.51563 118.41884 34986 ft 520 kts 53°
2026-05-05 23:19 22.55326 118.48548 34982 ft 520 kts 53°
2026-05-05 23:19 22.59108 118.55222 34987 ft 521 kts 53°
2026-05-05 23:20 22.62733 118.61581 34987 ft 519 kts 53°
2026-05-05 23:20 22.66497 118.68192 34969 ft 520 kts 53°
2026-05-05 23:21 22.70299 118.74881 34968 ft 519 kts 53°
2026-05-05 23:21 22.74074 118.81531 34973 ft 520 kts 53°
2026-05-05 23:22 22.77825 118.88147 34975 ft 520 kts 53°
2026-05-05 23:22 22.81598 118.94810 34971 ft 519 kts 54°
2026-05-05 23:23 22.85371 119.01483 34970 ft 520 kts 53°
2026-05-05 23:23 22.89150 119.08177 34972 ft 521 kts 54°
2026-05-05 23:24 22.92907 119.14839 34974 ft 519 kts 53°
2026-05-05 23:24 22.96673 119.21527 34972 ft 520 kts 53°
2026-05-05 23:25 23.00428 119.28200 34973 ft 521 kts 53°
2026-05-05 23:25 23.04182 119.34885 34976 ft 518 kts 53°
2026-05-05 23:26 23.07926 119.41558 34974 ft 520 kts 53°
2026-05-05 23:26 23.11691 119.48279 34981 ft 519 kts 53°
2026-05-05 23:27 23.15515 119.54919 34977 ft 515 kts 48°
2026-05-05 23:27 23.20394 119.60445 34978 ft 500 kts 32°
2026-05-05 23:28 23.26201 119.64470 34985 ft 495 kts 23°
2026-05-05 23:28 23.32184 119.68219 34972 ft 490 kts 24°
2026-05-05 23:29 23.38111 119.71941 34976 ft 492 kts 23°
2026-05-05 23:29 23.44008 119.75655 34977 ft 490 kts 23°
2026-05-05 23:30 23.49913 119.79421 34977 ft 490 kts 25°
2026-05-05 23:30 23.55691 119.83413 34978 ft 492 kts 25°
2026-05-05 23:31 23.61474 119.87417 34977 ft 490 kts 25°
2026-05-05 23:31 23.67189 119.91367 34975 ft 490 kts 25°
2026-05-05 23:32 23.72988 119.95375 34971 ft 488 kts 25°
2026-05-05 23:32 23.78712 119.99332 34969 ft 486 kts 25°
2026-05-05 23:33 23.84418 120.03280 34975 ft 487 kts 25°
2026-05-05 23:33 23.90133 120.07238 34540 ft 483 kts 25°
2026-05-05 23:34 23.92971 120.09203 33620 ft 488 kts 25°
2026-05-05 23:34 23.95847 120.11194 32722 ft 491 kts 25°
2026-05-05 23:34 23.98731 120.13193 31904 ft 492 kts 25°
2026-05-05 23:34 24.01592 120.15179 31099 ft 492 kts 25°
2026-05-05 23:35 24.04470 120.17178 30430 ft 489 kts 26°
2026-05-05 23:35 24.07341 120.19175 30015 ft 481 kts 26°
2026-05-05 23:35 24.10119 120.21108 29556 ft 475 kts 26°
2026-05-05 23:35 24.12888 120.23035 29071 ft 469 kts 26°
2026-05-05 23:36 24.15640 120.24950 28562 ft 465 kts 26°
2026-05-05 23:36 24.18375 120.26855 28053 ft 460 kts 26°
2026-05-05 23:36 24.21052 120.28719 27550 ft 456 kts 26°
2026-05-05 23:36 24.23726 120.30583 27031 ft 453 kts 26°
2026-05-05 23:37 24.26368 120.32424 26522 ft 450 kts 26°
2026-05-05 23:37 24.29024 120.34273 25997 ft 462 kts 26°
2026-05-05 23:37 24.31779 120.36192 25433 ft 466 kts 26°
2026-05-05 23:37 24.34467 120.38070 24881 ft 463 kts 26°
2026-05-05 23:38 24.37173 120.39962 24329 ft 459 kts 26°
2026-05-05 23:38 24.39857 120.41840 23781 ft 455 kts 26°
2026-05-05 23:38 24.42526 120.43708 23233 ft 452 kts 26°
2026-05-05 23:38 24.45150 120.45544 22690 ft 449 kts 26°
2026-05-05 23:39 24.47766 120.47375 22156 ft 446 kts 26°
2026-05-05 23:39 24.50377 120.49205 21607 ft 443 kts 26°
2026-05-05 23:39 24.52966 120.51019 21056 ft 440 kts 26°
2026-05-05 23:39 24.55547 120.52828 20501 ft 438 kts 27°
2026-05-05 23:40 24.58106 120.54623 19964 ft 435 kts 27°
2026-05-05 23:40 24.60626 120.56392 19448 ft 433 kts 27°
2026-05-05 23:40 24.63187 120.58189 18886 ft 431 kts 27°
2026-05-05 23:40 24.65683 120.59943 18340 ft 429 kts 27°
2026-05-05 23:41 24.68096 120.61855 17799 ft 431 kts 36°
2026-05-05 23:41 24.70362 120.64038 17254 ft 429 kts 37°
2026-05-05 23:41 24.72564 120.66202 16707 ft 428 kts 38°
2026-05-05 23:41 24.74794 120.68397 16168 ft 425 kts 38°
2026-05-05 23:42 24.76978 120.70546 15620 ft 423 kts 38°
2026-05-05 23:42 24.79162 120.72696 15091 ft 421 kts 39°
2026-05-05 23:42 24.81326 120.74827 14532 ft 419 kts 39°
2026-05-05 23:42 24.83499 120.76968 13969 ft 417 kts 39°
2026-05-05 23:43 24.85665 120.79101 13457 ft 415 kts 39°
2026-05-05 23:43 24.87793 120.81200 12946 ft 413 kts 39°
2026-05-05 23:43 24.89932 120.83309 12364 ft 412 kts 39°
2026-05-05 23:43 24.92017 120.85445 11822 ft 411 kts 44°
2026-05-05 23:44 24.93922 120.87787 11293 ft 409 kts 46°
2026-05-05 23:44 24.95779 120.90138 10866 ft 403 kts 47°
2026-05-05 23:44 24.97598 120.92446 10770 ft 388 kts 46°
2026-05-05 23:44 24.99328 120.94640 10666 ft 374 kts 46°
2026-05-05 23:45 25.01005 120.96768 10541 ft 362 kts 46°
2026-05-05 23:45 25.02628 120.98827 10397 ft 351 kts 46°
2026-05-05 23:45 25.04207 121.00830 10255 ft 340 kts 46°
2026-05-05 23:45 25.05725 121.02755 10114 ft 330 kts 46°
2026-05-05 23:46 25.07212 121.04641 9903 ft 324 kts 46°
2026-05-05 23:46 25.08687 121.06512 9706 ft 315 kts 45°
2026-05-05 23:46 25.10113 121.08322 9338 ft 316 kts 45°
2026-05-05 23:46 25.11560 121.10156 8935 ft 316 kts 46°
2026-05-05 23:47 25.12972 121.11954 8887 ft 301 kts 46°
2026-05-05 23:47 25.14331 121.13682 8655 ft 294 kts 46°
2026-05-05 23:47 25.15674 121.15389 8288 ft 293 kts 46°
2026-05-05 23:47 25.16987 121.17057 7948 ft 290 kts 47°
2026-05-05 23:48 25.18311 121.18742 7682 ft 285 kts 47°
2026-05-05 23:48 25.19609 121.20394 7442 ft 287 kts 47°
2026-05-05 23:48 25.20920 121.22063 7217 ft 286 kts 47°
2026-05-05 23:48 25.22210 121.23705 7004 ft 284 kts 47°
2026-05-05 23:49 25.23498 121.25346 6777 ft 283 kts 47°
2026-05-05 23:49 25.24806 121.27010 6426 ft 285 kts 48°
2026-05-05 23:49 25.26085 121.28641 6044 ft 283 kts 48°
2026-05-05 23:49 25.27287 121.30374 5659 ft 280 kts 64°
2026-05-05 23:50 25.27754 121.32397 5289 ft 275 kts 92°
2026-05-05 23:50 25.27363 121.34418 4923 ft 268 kts 117°
2026-05-05 23:50 25.26440 121.36181 4591 ft 263 kts 125°
2026-05-05 23:50 25.25373 121.37811 4256 ft 258 kts 135°
2026-05-05 23:51 25.23937 121.38875 3911 ft 248 kts 163°
2026-05-05 23:51 25.22249 121.39015 3557 ft 238 kts 194°
2026-05-05 23:51 25.20788 121.38278 3307 ft 227 kts 217°
2026-05-05 23:51 25.19611 121.37182 3044 ft 219 kts 226°
2026-05-05 23:52 25.18617 121.35960 2777 ft 209 kts 230°
2026-05-05 23:52 25.17705 121.34787 2531 ft 190 kts 230°
2026-05-05 23:52 25.16865 121.33713 2298 ft 181 kts 230°
2026-05-05 23:52 25.16060 121.32694 2074 ft 170 kts 230°
2026-05-05 23:53 25.15298 121.31728 1862 ft 165 kts 230°
2026-05-05 23:53 25.14538 121.30764 1651 ft 165 kts 230°
2026-05-05 23:53 25.13790 121.29817 1424 ft 164 kts 230°
2026-05-05 23:53 25.13037 121.28866 1201 ft 165 kts 230°
2026-05-05 23:54 25.12277 121.27919 956 ft 164 kts 230°
2026-05-05 23:54 25.11515 121.26971 740 ft 164 kts 230°
2026-05-05 23:54 25.10766 121.26026 530 ft 162 kts 230°
2026-05-05 23:54 25.10040 121.25096 326 ft 162 kts 230°
2026-05-05 23:55 25.09300 121.24151 131 ft 159 kts 230°
2026-05-05 23:55 25.08651 121.23329 122 ft 123 kts 229°
2026-05-05 23:55 25.08186 121.22739 122 ft 78 kts 229°
2026-05-05 23:55 25.07933 121.22417 122 ft 46 kts 229°
2026-05-05 23:56 25.07750 121.22192 122 ft 21 kts 223°
2026-05-05 23:56 25.07632 121.22105 122 ft 19 kts 205°